Kalispell, MT

4:06 PM MST on February 24, 2017 (GMT -0700)
Glacier Park International

Weather History for KGPI - December, 2011

Change the Weather History Date:

Monday, December 5, 2011

  Actual Average Record
Temperature  
Mean Temperature 22 °F 25 °F  
Max Temperature 30 °F 32 °F 49 °F (1940)
Min Temperature 14 °F 18 °F -8 °F (1972)
Degree Days  
Heating Degree Days 43 40  
Month to date heating degree days 199 198  
Since 1 July heating degree days 2251 2402  
Cooling Degree Days 0 0  
Month to date cooling degree days 0 0  
Year to date cooling degree days 97 147  
Moisture  
Dew Point 15 °F    
Average Humidity 67    
Maximum Humidity 84    
Minimum Humidity 50    
Precipitation  
Precipitation 0.00 in 0.05 in 0.60 in (1911)
Month to date precipitation 0.03 0.25  
Year to date precipitation 15.46 15.68  
Snow  
Snow 0.00 in - - ()
Month to date snowfall 0.3  
Year to date snowfall 29.5  
Since 1 July snowfall 2.5  
Snow Depth 0.00 in    
Sea Level Pressure  
Sea Level Pressure 30.51 in    
Wind  
Wind Speed 1 mph (NE)    
Max Wind Speed 9 mph    
Max Gust Speed 18 mph    
Visibility 10 miles    
Events      
T = Trace of Precipitation, MM = Missing Value Source: NWS Daily Summary

Daily Weather History Graph

Daily Weather History Graph

Search for Another Location

Airport or City:

Trip Planner

Search our weather history database for the weather conditions in past years. The results will help you decide how hot, cold, wet, or windy it might be!

Date:

Astronomy

Dec. 05, 2011 Rise Set
Actual Time 8:11 AM MST 4:43 PM MST
Civil Twilight 7:35 AM MST 5:19 PM MST
Nautical Twilight 6:56 AM MST 5:58 PM MST
Astronomical Twilight 6:18 AM MST 6:36 PM MST
Moon 1:56 PM MST (12/5) 3:21 AM MST (12/5)
Length of Visible Light 9h 44m
Length of Day
8h 31m
Waxing Gibbous, 80% of the Moon is Illuminated
Dec 5
Waxing Gibbous
Dec 10
Full
Dec 17
Last Quarter
Dec 24
New
Dec 31
First Quarter

Hourly Weather History & Observations

Time (MST) Temp. Windchill Dew Point Humidity Pressure Visibility Wind Dir Wind Speed Gust Speed Precip Events Conditions
12:55 AM 17.1 °F - 12.9 °F 84% 30.57 in 10.0 mi Calm Calm - N/A   Overcast
1:55 AM 19.0 °F - 12.9 °F 77% 30.55 in 10.0 mi Calm Calm - N/A   Overcast
2:55 AM 19.0 °F 13.9 °F 12.9 °F 77% 30.56 in 10.0 mi NNE 3.5 mph - N/A   Overcast
3:55 AM 19.9 °F - 14.0 °F 78% 30.55 in 10.0 mi Calm Calm - N/A   Overcast
4:55 AM 19.9 °F - 14.0 °F 78% 30.56 in 10.0 mi Calm Calm - N/A   Overcast
5:55 AM 19.9 °F - 14.0 °F 78% 30.55 in 10.0 mi Calm Calm - N/A   Overcast
6:55 AM 19.9 °F - 12.9 °F 74% 30.56 in 10.0 mi Calm Calm - N/A   Overcast
7:55 AM 19.9 °F - 15.1 °F 81% 30.56 in 10.0 mi Calm Calm - N/A   Overcast
8:55 AM 21.2 °F - 14.0 °F 74% 30.43 in 10.0 mi Calm Calm - N/A   Overcast
9:55 AM 21.9 °F - 12.9 °F 68% 30.56 in 10.0 mi Calm Calm - N/A   Overcast
10:55 AM 23.0 °F - 9.0 °F 55% 30.58 in 10.0 mi Calm Calm - N/A   Overcast
11:55 AM 26.1 °F - 12.0 °F 55% 30.54 in 10.0 mi Calm Calm - N/A   Mostly Cloudy
12:55 PM 28.9 °F 22.8 °F 14.0 °F 54% 30.51 in 10.0 mi SE 5.8 mph - N/A   Clear
1:55 PM 28.0 °F - 12.9 °F 53% 30.51 in 10.0 mi Calm Calm - N/A   Overcast
2:55 PM 28.9 °F - 12.9 °F 51% 30.48 in 10.0 mi Calm Calm - N/A   Mostly Cloudy
3:55 PM 28.9 °F 25.2 °F 15.1 °F 56% 30.47 in 10.0 mi NNE 3.5 mph - N/A   Overcast
4:55 PM 27.0 °F 23.0 °F 16.0 °F 63% 30.47 in 10.0 mi NNE 3.5 mph - N/A   Overcast
5:55 PM 27.0 °F - 16.0 °F 63% 30.47 in 10.0 mi Calm Calm - N/A   Overcast
6:55 PM 26.1 °F - 17.1 °F 69% 30.46 in 10.0 mi Calm Calm - N/A   Overcast
7:55 PM 26.1 °F - 16.0 °F 66% 30.46 in 10.0 mi Calm Calm - N/A   Overcast
8:55 PM 26.1 °F - 19.0 °F 75% 30.46 in 10.0 mi Calm Calm - N/A   Overcast
9:55 PM 26.1 °F - 18.0 °F 71% 30.46 in 10.0 mi Calm Calm - N/A   Overcast
10:55 PM 26.1 °F - 18.0 °F 71% 30.45 in 10.0 mi Calm Calm - N/A   Overcast
11:55 PM 25.0 °F - 19.9 °F 81% 30.45 in 10.0 mi Calm Calm - N/A   Overcast